User: anonymous   Login
Location: Clinton NY
(43.0598°N, 75.3602°W)
Time: 08:46:56
(UTC-04:00)
Language:

Iridium 11 - Orbit

View from above orbital plane
View from above orbital plane
View from above satellite
View from above satellite

Ground track
Ground track

The orbit data is extracted from the following two-line orbital elements,

1 25578U 98074B   14303.49728346  .00000376  00000-0  12716-3 0   839
2 25578 086.3924 297.1734 0002280 109.2659 049.3217 14.34219106839702
Epoch (UTC): 30 October 2014 11:56:05
Eccentricity: 0.0002280
inclination: 86.3924°
perigee height: 776 km
apogee height: 779 km
right ascension of ascending node: 297.1734°
argument of perigee: 109.2659°
revolutions per day: 14.34219106
mean anomaly at epoch: 49.3217°
orbit number at epoch: 83970

The dashed part of the orbit path shows where the satellite is in the earth's shadow,  

DLR